Wind_Speed
16 16 16 15 14 13 13 13 13 13 13 14 13 12 12 11 9 8 7 6 6 5 5 6 6 5 5 4 5 6 6 4 4 5 4 4 5 6 6 6 4 3 4 5 5 5 7 8 9 8 8 9 9 8 8 8 7 7 8 8 9 10 10 11 12 13 14 15 16 16 17 18 19 19 19 19 20 20 21 21 22 22 23 23 24
16 15 15 15 14 13 13 13 14 14 14 14 13 13 13 11 10 9 8 8 7 7 7 8 8 7 6 6 6 7 6 4 5 5 5 4 6 7 6 7 6 2 7 8 7 7 8 9 8 7 8 9 8 8 8 8 8 8 8 8 9 9 10 11 12 13 14 15 15 16 16 18 18 19 19 19 20 20 20 21 21 22 23 23 24
18 17 17 16 15 14 13 13 14 15 15 15 14 14 13 12 11 10 10 9 9 9 8 8 8 8 8 7 7 7 6 5 5 5 6 5 6 8 6 7 5 5 11 9 8 8 8 7 6 7 8 8 8 7 8 8 8 8 9 9 9 9 9 11 12 12 14 14 15 15 17 18 18 18 18 18 19 20 20 21 21 22 23 23 24
21 20 18 17 17 15 13 13 13 15 16 15 14 15 14 13 12 12 11 11 11 10 9 9 9 9 10 9 8 8 8 7 7 7 7 6 7 8 6 6 3 8 11 8 9 10 8 7 8 8 7 7 7 7 7 8 8 8 8 9 10 9 9 10 11 12 13 14 14 15 16 17 17 17 18 18 19 19 20 21 21 22 23 23 24
23 22 21 19 18 17 15 15 14 15 17 16 15 16 16 15 14 13 13 13 12 11 11 11 11 11 12 12 11 9 10 10 9 8 7 7 8 7 7 6 1 9 9 8 11 11 10 10 9 8 7 7 6 7 7 7 8 8 7 8 9 9 9 10 11 12 13 14 14 15 16 16 16 17 17 18 18 19 20 21 21 22 23 23 24
26 24 23 21 20 19 18 17 15 16 18 17 16 17 17 16 15 15 14 13 13 13 13 13 12 12 12 12 12 11 12 11 10 9 8 9 8 6 6 5 1 8 9 10 13 12 11 11 10 9 7 7 7 7 7 7 7 7 7 8 8 7 8 9 10 11 12 13 13 14 15 15 16 16 17 17 18 19 19 20 21 22 22 23 24
27 27 26 24 23 22 21 19 16 17 19 18 17 18 18 18 17 16 15 14 15 14 15 15 14 13 12 11 11 12 13 12 12 12 11 10 8 6 7 5 3 8 11 11 14 13 12 11 9 9 7 7 7 7 6 6 6 6 7 8 8 7 7 8 10 11 12 12 13 14 15 15 16 16 17 17 18 19 19 20 21 21 22 23 24
28 28 28 27 25 24 22 20 18 19 20 20 19 19 19 19 18 17 17 16 16 16 16 16 15 14 13 11 11 12 12 11 12 13 13 10 8 8 8 6 5 8 12 13 14 13 12 10 8 7 7 7 6 6 6 6 5 5 6 7 7 6 7 8 9 10 11 12 13 14 14 14 15 16 16 17 18 19 19 20 21 21 22 23 24
28 29 29 29 27 25 22 20 20 21 22 22 21 21 20 21 20 19 19 18 18 18 17 16 17 16 14 14 13 12 11 12 13 14 13 11 10 10 9 8 7 8 12 14 14 13 12 9 8 8 7 6 6 6 6 6 5 5 5 5 6 6 8 8 8 9 10 11 12 13 13 14 15 15 16 17 17 18 18 19 20 21 22 22 23
30 30 30 29 28 26 23 22 22 23 24 24 23 23 22 22 22 21 21 20 20 19 17 16 16 15 15 15 14 13 12 13 14 14 14 13 13 12 10 9 9 10 12 14 15 14 12 10 9 9 8 7 6 6 5 5 5 5 5 5 5 6 8 9 9 9 10 11 12 12 13 14 14 15 16 16 17 18 18 19 20 21 21 22 23
30 30 30 30 29 27 25 24 24 25 25 26 25 25 24 24 24 23 22 22 21 20 18 16 15 14 14 15 15 14 14 14 14 15 16 16 15 13 11 11 11 11 12 14 15 14 12 10 10 9 8 7 6 5 4 4 4 4 5 5 5 5 8 9 9 9 10 10 11 12 12 13 14 15 15 16 17 17 18 19 20 20 21 22 22
31 31 31 31 31 29 28 26 27 27 27 28 27 26 26 26 26 25 24 23 22 21 18 16 15 14 14 14 14 14 15 15 14 15 17 18 17 15 13 12 13 13 13 14 15 14 12 11 11 10 8 8 6 5 5 4 4 3 3 4 5 6 6 8 9 9 9 9 10 11 12 13 14 14 15 16 16 17 18 18 19 20 21 22 22
32 32 32 32 32 31 30 29 29 29 29 29 28 26 26 26 26 25 25 24 24 22 19 16 14 12 11 12 13 14 14 14 15 17 19 19 19 18 15 14 15 15 14 15 15 15 13 13 11 9 9 8 7 6 5 4 4 3 2 2 4 5 5 6 7 8 8 9 10 11 11 12 13 14 14 15 16 17 17 18 19 20 21 22 22
34 33 33 33 33 33 32 31 31 31 31 30 29 28 28 27 27 27 26 25 24 23 20 17 13 11 9 7 8 12 13 13 14 16 18 19 20 20 18 17 16 16 16 16 16 16 16 14 11 9 8 8 8 7 6 5 4 3 2 1 2 3 4 5 6 8 8 8 9 10 11 12 13 13 14 15 15 16 17 18 19 19 20 21 22
35 34 34 34 34 34 34 33 33 33 34 33 32 31 30 30 29 29 27 25 25 24 22 19 16 12 7 4 4 5 7 10 12 15 17 19 21 21 20 18 17 17 17 17 17 18 18 17 14 11 9 8 8 7 6 5 4 3 2 1 0 1 2 4 5 7 8 8 8 9 10 11 12 13 14 14 15 16 17 18 19 19 20 21 22
36 35 36 36 35 36 35 35 34 35 35 35 35 34 33 32 32 31 29 26 25 25 24 22 20 14 6 1 1 1 3 6 9 13 15 17 20 21 20 19 19 18 18 18 18 18 19 18 16 14 12 10 9 8 7 6 5 3 2 2 2 1 1 2 4 5 7 7 8 8 10 11 12 12 13 14 15 16 17 17 18 19 20 21 22
37 37 37 37 37 37 37 36 36 35 36 37 37 36 35 34 34 33 32 30 28 26 23 23 25 23 15 6 2 1 3 3 5 8 12 16 18 20 20 20 20 20 20 20 19 19 19 18 17 16 14 12 10 9 7 6 4 3 3 2 3 3 3 2 3 5 6 6 7 8 9 10 11 12 13 13 14 15 16 17 18 19 20 21 22
38 38 39 38 39 38 38 38 37 37 37 38 39 38 37 37 36 35 35 34 31 26 24 24 25 27 27 21 14 9 5 4 3 2 7 13 16 18 20 21 21 21 21 21 21 21 20 20 19 17 16 14 11 8 7 6 5 4 3 3 3 4 4 4 4 5 6 7 7 8 8 9 10 11 12 13 14 15 16 17 18 18 19 21 22
39 40 40 40 40 40 40 40 39 39 38 39 40 40 39 38 37 37 37 36 33 29 27 26 24 26 30 30 26 21 14 9 6 2 1 7 13 17 19 20 21 22 22 23 22 22 23 21 20 18 17 15 11 9 7 6 6 5 4 4 4 4 4 5 6 7 7 8 8 8 8 9 9 11 12 12 13 14 15 17 18 19 19 20 21
40 40 40 41 41 41 41 41 41 40 40 41 41 41 40 38 37 37 36 36 35 33 31 28 25 26 29 31 30 27 23 18 14 10 5 3 6 11 16 19 21 22 23 24 25 25 24 23 22 20 18 16 12 9 9 8 7 6 5 4 4 5 5 6 7 8 9 9 9 10 9 9 10 11 12 12 13 13 15 16 17 18 19 20 22
40 40 41 41 42 43 42 42 42 41 41 42 42 41 40 39 38 37 37 37 37 36 33 31 31 29 27 29 30 28 26 22 20 17 10 5 3 4 10 14 16 22 25 25 26 26 25 24 23 21 19 17 15 12 10 9 8 6 5 5 5 5 5 7 8 9 10 10 10 11 11 11 11 12 12 12 12 13 14 16 17 18 19 20 21
39 39 40 41 41 42 42 42 43 42 42 42 42 41 40 39 39 38 38 37 37 37 35 35 34 32 30 29 28 25 21 17 16 16 12 9 6 4 11 15 13 20 27 28 28 27 26 25 23 22 21 19 17 14 12 10 8 7 5 5 5 5 5 7 8 9 10 11 11 11 12 13 13 13 13 13 13 13 14 15 16 18 19 20 21
38 38 39 40 40 41 41 42 43 42 42 42 42 42 40 40 39 37 37 37 37 37 37 37 34 33 33 31 30 28 24 20 20 21 17 12 8 5 13 20 17 17 23 27 28 27 26 27 26 24 23 21 19 16 14 12 10 8 7 6 6 5 5 7 8 10 10 11 11 12 12 13 14 14 14 13 13 13 13 15 16 18 19 20 21
37 38 39 40 39 40 41 42 42 42 42 42 42 41 40 39 38 37 38 38 38 36 35 37 36 34 34 34 33 33 32 31 29 28 26 22 17 10 11 15 13 12 16 21 25 27 28 28 28 27 24 23 21 19 17 14 12 9 7 6 6 5 6 7 9 10 10 10 11 12 13 13 13 14 15 15 14 13 13 14 16 17 19 20 21
37 39 41 40 39 40 41 41 42 42 42 42 42 41 40 39 38 39 39 38 38 36 37 37 37 37 36 35 35 34 35 36 34 32 32 30 23 14 10 11 9 9 13 18 22 24 27 29 29 28 27 25 23 22 20 16 14 11 8 7 6 6 6 7 9 10 10 10 11 12 14 14 13 14 15 15 15 14 14 14 16 17 19 20 21
40 41 41 39 39 40 40 40 41 41 41 42 42 41 40 40 40 40 40 40 38 36 37 38 37 38 36 35 35 36 37 38 36 35 34 30 25 18 11 8 8 11 14 18 21 21 24 31 32 30 29 28 26 24 22 19 16 13 11 8 7 7 7 7 9 9 10 10 11 13 15 15 14 14 15 16 15 14 14 14 16 18 19 20 21
42 41 40 38 38 39 38 39 40 40 40 40 40 40 40 39 39 40 40 39 37 36 37 37 36 37 36 36 37 38 40 40 39 38 37 35 32 29 20 9 4 7 9 12 17 22 26 29 32 33 32 30 29 26 24 22 19 16 13 11 9 8 8 8 8 9 9 10 12 14 16 16 14 15 15 16 16 15 15 15 16 18 19 19 21
41 39 38 37 37 37 37 38 38 38 39 39 39 39 39 38 39 39 39 38 36 35 36 36 37 37 37 38 39 40 41 40 40 39 40 40 37 35 31 22 11 4 3 6 10 18 25 26 28 33 35 32 30 28 25 23 21 18 15 13 11 10 9 8 8 9 10 11 14 16 16 15 15 15 16 16 15 15 16 16 16 17 19 19 20
40 38 37 36 36 36 36 37 37 36 37 37 37 37 37 37 38 38 38 37 35 35 35 36 37 38 39 39 40 41 40 39 39 39 40 41 39 36 35 34 24 10 4 5 7 13 23 28 30 32 35 35 30 28 27 24 22 19 16 15 13 11 10 9 8 9 11 13 15 17 16 14 14 15 15 16 15 14 16 17 17 17 18 18 19
39 37 36 36 36 35 35 36 35 35 36 36 36 36 35 36 36 37 37 35 34 35 36 37 38 38 39 39 39 39 38 36 37 38 39 40 40 39 37 37 33 21 11 7 8 15 24 29 32 31 33 36 33 29 28 25 22 20 18 16 14 12 11 10 9 9 11 13 15 17 15 14 15 15 15 16 15 15 16 17 18 17 17 17 18
38 37 36 36 35 35 34 34 34 34 35 35 35 35 34 34 34 35 35 35 35 36 37 38 38 38 38 38 37 37 36 35 35 37 40 40 40 40 37 35 35 31 23 13 7 14 24 28 32 33 31 33 35 31 28 26 23 21 19 17 16 14 12 11 10 9 12 14 15 16 16 15 15 15 16 16 15 16 17 18 18 18 18 17 17
38 37 36 35 35 34 33 33 33 34 34 34 34 34 33 33 34 34 34 35 35 37 37 37 37 38 38 38 37 37 37 37 38 38 39 40 39 38 36 35 36 35 30 21 9 9 20 26 28 31 29 30 33 32 29 28 25 23 21 19 17 16 14 12 10 10 12 14 15 16 17 16 16 15 16 16 16 17 18 18 19 19 19 18 17
38 36 35 35 34 33 33 33 33 33 33 33 33 33 33 33 34 34 35 35 35 36 36 36 36 36 36 36 36 37 38 39 40 39 37 38 37 36 35 36 37 35 31 27 17 9 14 20 22 26 28 28 31 33 32 30 28 26 23 21 19 17 15 13 10 11 13 15 16 17 17 17 16 16 16 16 17 17 18 18 19 19 20 19 18
37 36 35 35 34 33 33 33 33 33 33 33 33 32 33 34 34 34 35 35 36 37 37 37 37 37 36 37 37 38 37 36 35 34 33 33 33 33 35 34 34 35 35 32 24 14 13 17 20 23 26 29 32 34 34 33 31 27 24 22 20 18 16 13 11 12 14 15 17 17 17 17 16 16 16 17 17 18 18 18 19 20 20 20 18
36 35 35 34 34 33 33 33 33 33 33 33 32 33 33 34 34 34 35 36 36 37 36 36 35 35 34 35 34 31 29 29 31 31 31 31 32 32 33 33 34 36 38 35 28 20 17 18 21 24 27 30 33 34 34 33 29 26 25 22 20 19 17 13 12 13 14 16 17 17 17 16 16 16 16 17 18 18 19 18 19 20 20 20 19
36 36 35 34 33 33 33 33 33 33 33 33 33 33 33 34 34 34 35 36 36 36 35 34 33 33 33 32 30 27 26 27 28 29 29 29 30 29 29 33 35 34 34 33 28 23 20 20 21 25 29 32 33 33 33 31 28 26 24 22 21 20 16 14 13 14 15 17 17 16 16 16 15 16 17 18 18 19 19 18 19 20 20 20 18
36 35 34 34 33 33 33 33 33 33 33 33 33 33 33 34 34 34 35 35 34 34 34 34 34 34 33 32 31 29 27 25 24 26 28 28 26 25 29 33 34 32 31 31 29 26 23 23 24 24 27 30 31 31 32 32 29 27 25 23 22 20 16 15 14 14 16 17 17 16 16 16 16 16 17 18 19 19 18 18 19 20 20 19 17
35 34 34 33 33 33 33 33 33 33 33 32 33 33 33 33 33 33 33 32 31 31 31 32 33 33 33 32 31 29 27 24 24 25 27 27 25 27 32 34 32 32 32 31 31 29 26 26 26 26 29 32 30 29 31 32 31 29 26 24 22 19 16 15 15 15 17 17 17 16 16 17 16 16 17 18 19 19 18 18 18 19 19 19 17
33 33 33 33 33 32 33 33 33 32 32 32 32 32 31 30 31 31 31 30 30 31 30 31 32 31 31 29 28 27 26 24 24 25 25 26 28 31 34 33 32 33 32 32 31 29 25 24 24 25 28 31 29 29 31 31 28 26 26 24 22 20 17 16 16 16 17 17 17 17 17 17 17 16 17 18 19 19 18 17 18 19 19 18 16
32 32 32 32 31 31 31 32 32 31 31 31 31 30 29 29 29 29 28 29 30 31 31 31 31 30 28 26 26 26 26 25 25 25 25 26 30 34 34 33 32 32 31 30 29 27 24 24 24 25 26 28 27 26 27 28 27 26 27 25 22 20 18 17 16 17 17 17 17 17 17 17 17 17 17 18 19 19 18 17 18 18 18 17 15
31 31 30 30 30 30 30 30 30 30 30 30 30 29 28 27 27 27 27 28 29 30 30 29 29 30 28 27 26 25 24 24 24 24 24 25 29 33 35 34 33 31 29 29 28 27 25 24 23 24 24 25 27 27 28 31 32 30 29 27 23 20 18 17 17 17 18 17 17 17 16 16 16 17 17 17 19 19 17 17 17 18 18 16 14
28 28 27 27 28 29 29 28 28 28 28 29 28 26 25 25 26 27 27 27 27 28 28 27 27 27 28 27 26 25 23 23 23 23 24 26 29 33 33 32 32 32 31 29 29 29 29 26 26 26 24 24 29 32 33 35 35 30 27 26 24 21 18 16 15 16 17 16 16 17 15 14 15 17 16 16 17 17 16 15 17 17 17 15 14
25 24 24 24 25 25 25 25 25 25 25 24 22 22 22 24 25 26 25 25 26 26 26 25 25 25 25 27 26 23 22 22 22 22 24 27 30 31 30 29 29 30 31 31 31 31 30 28 27 28 27 26 31 35 35 33 33 31 26 25 24 21 18 14 11 11 13 14 13 14 14 13 14 17 16 15 15 16 15 15 16 16 15 14 13
21 21 22 23 23 22 22 22 22 22 21 20 20 20 21 22 23 24 24 24 24 24 25 24 23 23 23 25 23 21 21 21 20 21 24 27 28 27 26 27 27 28 29 30 29 30 31 30 28 29 31 30 32 36 36 33 33 31 26 23 23 21 19 17 13 9 10 11 11 12 14 14 15 17 16 14 13 15 15 16 16 15 13 12 13
21 21 22 22 21 21 21 21 22 21 20 20 20 20 20 20 21 21 22 22 22 23 24 24 23 22 22 23 22 22 21 19 19 21 23 25 25 25 25 25 26 26 27 29 28 28 31 34 33 34 36 34 33 36 37 35 33 31 27 25 24 22 19 18 16 12 11 11 10 11 14 16 15 17 15 12 13 15 15 16 16 14 13 13 13
24 24 23 22 22 22 22 21 21 21 21 20 19 18 18 18 19 19 19 19 20 22 23 23 22 22 22 23 23 22 20 19 20 22 24 24 24 25 25 25 25 26 27 28 29 28 29 33 35 35 35 35 33 33 35 34 32 29 27 25 23 22 19 17 14 13 12 12 11 9 11 14 14 15 15 14 14 15 15 16 16 14 13 14 14
27 27 25 24 23 23 23 23 22 22 23 23 22 22 21 18 18 19 18 17 18 20 21 21 21 22 23 24 22 20 19 19 20 22 23 24 24 25 25 25 26 26 26 28 29 28 26 28 30 29 28 29 29 28 30 33 31 26 23 19 16 18 18 15 13 12 12 13 12 8 8 11 14 15 17 17 15 16 16 17 16 13 12 13 14
25 25 25 25 24 24 23 22 22 22 23 24 25 26 24 21 20 19 18 17 17 19 20 21 22 23 23 22 20 18 18 19 19 20 22 23 24 25 25 24 24 24 25 26 27 27 26 25 26 25 24 24 26 25 26 30 30 26 21 15 13 15 16 13 12 13 13 13 14 11 9 12 15 16 17 15 15 17 18 17 14 11 10 12 14
22 23 24 24 24 24 23 23 23 23 24 24 25 25 24 23 21 19 18 17 17 19 20 21 22 22 20 19 18 17 18 18 18 19 21 23 23 23 23 23 23 23 24 25 25 26 26 25 25 25 24 23 23 24 24 26 28 26 20 17 17 18 16 13 11 13 14 14 14 12 11 12 13 14 15 16 15 17 17 15 12 9 8 10 13
23 23 23 23 23 24 24 24 24 24 24 24 23 23 23 22 21 20 19 18 18 18 19 20 20 19 18 17 16 16 17 17 18 19 21 23 23 24 23 23 23 23 25 26 26 24 24 24 23 23 23 22 21 22 21 21 23 22 19 18 20 20 19 16 13 12 12 14 16 13 10 9 11 11 13 15 13 13 13 12 10 9 10 11 13
22 22 22 23 24 24 24 24 23 23 23 23 23 22 22 22 22 21 20 19 18 18 18 18 18 17 17 17 16 16 16 17 18 19 21 23 24 24 24 23 24 25 26 26 26 24 23 23 22 21 21 19 18 19 20 19 19 19 19 20 20 19 19 18 15 10 6 9 13 14 10 8 8 9 10 9 6 7 8 8 10 14 16 16 14
Wind_Direction
236 233 232 235 239 244 248 248 247 243 237 234 230 221 214 208 204 208 215 216 219 226 235 233 234 244 255 261 259 277 282 271 294 289 291 326 333 328 336 354 350 241 185 137 143 154 132 120 112 96 92 98 97 94 87 80 75 69 64 59 55 51 47 48 44 40 37 37 40 39 36 35 35 33 29 26 24 21 19 19 17 15 14 13 10
237 234 234 236 238 243 248 247 246 241 236 233 227 221 214 209 211 216 219 221 229 240 248 244 237 243 251 253 262 270 263 272 299 281 275 304 321 321 322 343 347 215 175 158 161 159 138 124 113 101 105 108 103 98 89 80 74 68 64 57 53 52 50 48 44 39 34 35 39 38 35 36 34 31 28 25 22 19 19 18 16 14 13 11 10
238 238 238 239 240 243 247 249 247 240 234 230 225 219 213 212 216 218 221 226 236 248 252 251 246 249 256 257 263 263 246 257 296 279 266 283 313 316 311 340 349 172 164 163 162 151 141 128 117 115 115 112 104 98 91 85 76 70 69 62 54 48 47 46 42 37 33 34 36 35 36 36 33 29 27 24 21 19 19 18 16 14 12 11 10
238 240 240 239 240 243 246 248 247 239 231 226 223 218 212 214 218 220 228 234 240 248 252 257 257 259 264 264 260 257 247 252 281 278 260 271 308 313 301 335 354 169 164 164 161 151 149 138 126 124 119 115 105 96 89 84 81 74 69 68 63 50 42 42 39 33 33 34 33 34 37 36 31 28 26 23 21 19 18 17 14 12 11 10 9
238 240 240 239 239 241 243 243 243 236 227 222 220 216 214 217 222 229 237 239 242 247 253 259 261 262 264 264 259 256 255 257 272 271 259 271 293 302 297 325 345 179 174 165 162 151 145 139 129 128 125 120 112 104 97 87 84 77 68 67 65 55 43 37 35 31 32 33 30 34 37 35 30 27 24 22 20 19 18 16 13 11 10 9 8
238 239 239 238 237 237 238 236 236 233 224 218 218 217 219 223 227 235 241 244 247 250 255 262 265 267 268 267 260 255 254 256 263 259 253 262 269 281 289 308 266 194 185 171 170 161 155 152 140 135 133 129 121 111 106 95 87 79 72 70 62 51 39 31 30 29 29 29 29 34 36 33 29 26 23 21 20 18 16 15 12 10 9 8 7
237 237 236 236 237 236 236 232 231 232 224 218 219 221 224 229 231 236 241 246 251 254 259 266 268 270 273 271 268 259 250 252 263 261 251 249 250 268 279 280 258 211 199 188 185 181 179 177 163 144 131 135 130 116 109 100 92 82 75 72 62 42 29 28 26 24 28 27 28 35 36 32 28 25 22 20 19 17 15 13 10 8 8 7 6
236 235 235 235 237 237 236 233 232 232 228 222 223 225 228 232 234 237 241 246 251 256 262 267 267 268 270 271 276 266 250 252 266 264 253 245 249 269 274 262 250 227 215 206 201 201 201 202 199 168 136 130 125 115 109 100 94 86 77 68 57 34 20 25 23 22 27 26 27 34 35 30 26 24 21 19 18 15 13 12 9 7 6 6 5
235 234 234 235 238 240 239 237 235 233 230 227 227 229 232 235 236 238 242 247 252 257 263 268 266 266 266 269 275 266 255 262 265 258 251 247 248 256 261 255 245 236 227 219 215 215 214 221 227 203 169 150 133 122 115 108 100 91 83 68 51 26 10 16 21 23 29 26 27 34 33 28 25 23 21 18 16 13 11 10 7 5 5 5 4
236 234 235 237 239 241 242 240 237 233 231 231 231 233 235 237 239 240 243 248 252 256 264 269 267 266 266 268 270 260 254 262 261 255 249 243 243 244 250 254 246 238 233 226 223 222 224 231 227 210 195 184 169 156 142 130 118 102 90 75 52 20 5 12 18 24 31 29 28 33 31 27 24 21 19 17 15 12 9 8 6 4 4 3 2
237 236 236 238 239 241 241 239 237 233 232 233 233 234 236 238 241 243 245 248 252 256 264 268 265 265 266 267 264 252 246 251 257 257 247 237 234 233 241 252 245 237 236 232 227 226 229 228 213 203 203 199 194 188 185 175 152 122 98 81 64 30 9 10 15 20 31 32 31 31 29 26 23 20 18 15 14 10 7 6 5 3 3 1 0
238 237 237 238 238 239 239 238 236 234 233 234 234 235 237 239 242 245 247 250 251 253 259 262 259 261 263 262 255 246 244 245 249 251 244 237 231 226 233 248 243 233 233 232 228 227 225 215 203 200 203 202 202 201 205 206 191 159 121 92 75 54 20 9 12 16 27 34 32 28 25 25 21 18 17 14 11 9 5 4 3 2 1 360 358
239 238 238 238 239 240 240 239 238 236 235 236 237 238 240 242 245 248 250 251 251 251 253 253 251 253 255 255 250 244 246 248 247 243 238 237 232 224 226 238 237 230 230 230 227 224 216 206 200 201 204 204 205 207 212 216 216 207 165 117 85 69 35 13 10 11 19 29 31 26 22 23 20 16 15 12 9 7 4 2 1 1 359 358 357
241 241 240 241 241 241 241 240 239 239 238 238 239 241 243 245 248 249 250 249 250 249 248 243 235 232 236 248 254 250 251 251 248 243 237 236 233 226 224 228 230 228 228 228 226 222 216 210 207 207 210 210 210 212 218 222 225 232 221 171 104 76 49 26 10 5 14 20 25 24 19 20 19 14 12 10 8 5 3 1 359 359 358 356 355
243 243 243 243 243 242 241 240 240 240 240 240 240 242 243 246 247 248 248 246 246 245 242 238 230 220 220 241 243 243 255 248 243 245 243 238 233 227 223 223 225 227 228 228 228 225 222 221 222 224 225 221 218 218 222 226 230 238 244 244 233 72 56 35 10 1 7 10 14 19 18 18 16 13 10 8 6 4 2 360 358 357 356 355 353
244 245 244 244 243 243 242 242 241 242 242 242 242 242 243 245 246 246 245 241 241 241 239 237 230 217 197 198 170 181 257 235 226 240 244 241 237 230 223 221 222 225 226 228 229 228 227 228 231 233 232 229 226 224 224 226 231 238 251 272 285 300 338 16 4 353 358 3 4 12 17 15 12 9 8 5 4 2 1 359 357 355 354 353 352
245 245 245 245 244 244 244 244 244 244 243 243 244 244 245 245 245 246 243 239 238 238 237 233 231 226 215 203 163 191 240 199 204 235 235 234 237 232 224 221 223 224 225 227 227 227 229 232 236 237 233 231 229 226 226 228 232 242 256 274 289 297 305 320 328 332 342 349 352 359 8 11 9 6 5 5 2 360 359 357 355 354 353 351 350
245 245 245 244 245 245 244 244 244 244 244 244 244 245 245 246 246 245 244 243 239 236 236 233 231 229 224 224 230 236 223 167 164 244 232 226 230 229 226 224 224 224 225 227 227 228 231 233 237 238 234 232 231 229 228 230 235 245 258 269 281 293 305 310 313 320 326 330 335 344 355 5 6 2 2 2 1 359 356 355 354 353 352 350 349
245 245 244 244 244 244 244 244 243 244 244 245 244 244 245 246 246 245 246 244 238 233 236 235 228 227 227 227 232 238 237 218 200 200 227 226 222 221 226 227 226 226 226 228 229 230 232 233 234 236 236 233 233 232 228 232 239 243 254 265 278 293 307 312 317 323 324 324 326 331 341 354 357 356 359 360 359 358 354 353 352 351 350 349 348
245 244 244 243 244 244 243 242 242 242 243 244 245 245 245 245 245 245 245 243 238 235 236 234 228 228 228 227 229 234 236 234 231 224 212 222 216 213 221 225 227 228 228 229 230 231 232 233 233 235 235 233 233 234 230 229 235 240 251 262 277 292 304 313 318 323 327 325 323 324 330 341 346 348 351 355 357 356 353 351 350 350 349 348 347
245 244 244 243 243 243 242 241 241 241 241 243 244 245 245 244 244 244 243 242 240 238 237 235 233 232 230 227 228 231 233 234 234 226 217 217 216 198 206 213 225 230 228 229 230 230 231 233 233 234 234 233 232 234 232 229 230 234 244 256 269 285 298 309 315 320 325 324 320 320 324 330 337 341 345 348 352 354 352 350 348 348 348 347 347
244 244 244 243 243 242 241 241 242 241 242 242 243 243 243 244 244 244 244 242 241 240 238 238 237 235 233 229 224 226 229 231 229 222 218 222 225 205 196 197 211 226 227 228 228 227 227 228 229 230 232 232 232 233 232 230 229 230 235 246 257 273 291 304 312 317 320 321 319 318 321 326 331 336 339 342 347 351 350 349 348 348 347 346 346
243 243 244 244 242 242 241 242 242 242 242 242 243 243 243 244 244 244 244 244 242 241 240 240 238 236 235 231 226 226 226 226 225 219 215 214 215 210 204 205 211 219 223 225 225 225 224 224 226 228 230 231 230 232 232 231 231 230 231 239 247 262 285 302 308 312 315 316 316 316 316 322 329 331 333 336 340 346 348 348 347 347 347 346 345
241 242 244 243 241 241 241 241 242 241 242 243 244 244 244 244 244 244 244 244 243 240 239 239 237 235 235 232 231 232 230 231 231 225 221 220 220 222 208 203 211 218 218 217 219 223 224 223 224 225 228 229 229 230 230 231 231 231 232 235 244 257 276 297 304 305 309 311 312 314 313 318 325 325 327 331 333 339 346 348 348 347 347 346 345
237 240 242 241 240 241 240 240 241 242 242 244 245 245 245 245 245 245 245 244 243 240 239 240 239 237 237 235 234 234 234 236 235 230 229 225 222 223 205 195 198 200 206 210 212 219 224 224 224 224 225 226 227 229 230 230 231 232 236 238 245 257 270 287 296 296 300 307 310 312 313 314 320 320 322 327 329 335 344 347 348 348 347 346 345
238 241 242 241 241 243 242 242 243 244 244 245 245 246 246 245 245 246 246 246 244 242 241 242 241 240 239 237 236 236 237 238 235 233 231 224 219 215 196 185 197 188 193 204 204 208 219 222 222 222 223 223 224 227 228 229 230 232 237 244 249 257 268 279 288 292 298 305 310 312 312 310 313 316 318 323 327 333 342 348 350 349 348 347 345
241 243 243 241 242 244 244 245 245 245 245 246 246 246 245 245 245 246 247 247 244 242 243 242 241 241 240 240 240 239 239 239 237 235 233 229 225 218 202 180 195 200 189 196 202 210 218 220 219 219 220 220 221 225 227 227 229 232 237 246 254 257 265 276 285 293 298 304 309 311 310 307 308 312 316 320 325 331 338 347 351 349 348 347 345
243 243 242 242 243 244 244 246 246 246 246 247 246 246 245 244 244 245 245 246 243 241 243 242 242 243 242 242 241 241 241 240 238 236 237 235 230 222 212 201 197 199 185 194 211 221 221 218 217 219 219 219 220 221 224 226 227 231 238 245 254 258 262 276 286 292 299 307 312 311 307 303 305 311 316 319 325 332 337 343 350 350 347 346 346
243 243 243 243 244 245 245 246 247 246 247 247 247 246 245 243 243 243 244 244 242 242 243 243 244 244 244 244 243 244 245 243 239 238 239 238 231 225 221 213 206 193 167 203 216 217 218 217 217 218 217 217 218 219 221 225 226 230 238 243 251 257 262 274 284 290 300 308 311 310 305 303 307 312 316 318 324 332 336 340 345 347 345 345 345
244 243 244 244 244 244 244 245 246 246 247 248 247 247 245 243 243 244 244 244 242 243 245 244 245 245 244 244 243 244 245 244 242 242 243 241 234 229 226 219 214 207 191 196 216 214 214 215 216 219 217 213 215 217 219 222 226 229 236 241 248 255 262 271 279 290 300 304 308 308 306 305 307 310 312 315 320 327 330 334 338 340 341 343 343
243 244 244 244 244 243 243 244 245 246 247 247 247 246 243 242 242 243 244 244 243 243 245 245 245 245 245 245 244 245 247 248 248 248 247 244 237 231 226 218 216 217 210 201 219 222 216 215 217 220 219 213 211 213 217 220 224 228 233 238 245 252 260 266 274 289 297 300 304 305 306 305 303 304 307 311 316 321 326 330 332 333 335 339 341
243 243 243 244 244 243 243 244 244 245 246 246 246 245 242 241 241 242 243 242 241 242 244 244 244 244 244 244 245 246 247 248 248 248 248 245 238 231 226 221 220 223 218 208 216 224 213 216 219 217 217 214 209 211 215 217 221 225 229 235 242 248 256 262 271 284 291 296 300 303 305 303 297 299 304 308 313 318 322 326 328 329 331 334 336
242 242 242 243 243 243 243 244 245 245 245 245 245 243 241 241 241 241 242 241 241 243 244 244 244 244 243 244 247 249 248 246 244 244 244 243 238 230 226 224 221 222 220 213 216 216 200 209 216 213 213 210 207 210 214 216 219 221 225 232 238 245 253 257 265 278 286 291 296 301 304 299 293 296 302 306 311 316 319 322 325 327 328 329 331
241 241 242 243 243 243 243 244 245 245 244 244 244 243 241 240 241 241 241 240 241 242 243 243 243 244 244 245 248 249 246 243 241 240 240 239 237 231 225 222 221 224 224 218 214 206 190 198 206 206 207 207 206 210 213 216 218 220 224 230 234 241 248 252 262 276 282 288 294 300 300 295 292 295 300 305 310 314 316 319 322 325 325 325 327
241 241 243 244 243 244 243 244 245 244 244 243 242 242 241 241 241 241 241 241 241 241 241 241 242 242 242 243 245 246 245 245 243 242 242 240 238 233 226 224 226 228 226 219 213 204 190 191 199 201 200 203 207 211 213 215 219 221 224 229 234 238 242 248 261 271 278 285 293 298 296 292 291 293 299 305 310 312 313 316 320 322 322 322 325
242 243 244 244 244 244 243 243 244 243 244 244 243 242 241 242 242 243 244 244 243 243 243 244 247 247 246 246 248 251 250 246 243 241 242 240 237 231 226 225 226 226 225 219 215 210 196 187 194 201 200 200 205 210 210 210 214 220 223 226 231 236 240 248 259 267 276 286 293 296 294 290 289 292 298 304 308 310 310 313 317 319 319 321 324
243 244 244 243 242 242 242 243 243 244 245 245 244 244 243 244 244 245 245 245 245 245 246 250 252 251 250 251 253 254 250 244 241 242 243 241 237 232 228 226 224 225 227 223 218 216 208 194 190 195 199 200 203 207 208 206 208 214 219 224 229 233 237 246 255 263 275 286 292 293 292 289 287 290 296 301 305 306 307 310 314 316 318 320 324
243 243 243 243 242 242 242 244 244 245 246 246 245 246 245 246 246 246 246 247 249 250 250 253 254 252 251 252 252 251 250 248 246 246 245 239 234 230 227 226 225 225 226 222 216 214 211 201 192 190 195 199 200 202 205 208 209 211 214 220 226 230 236 244 251 262 274 283 288 289 288 288 286 287 292 297 301 302 303 307 312 315 317 319 324
242 242 242 242 242 242 243 244 244 244 245 246 245 245 246 247 247 247 248 250 252 253 253 255 255 253 250 248 249 252 253 252 248 246 243 235 229 227 225 225 226 222 219 216 210 206 204 197 191 192 194 197 200 200 202 205 211 215 216 217 221 226 232 240 249 260 271 278 282 284 285 285 284 286 292 297 299 301 302 306 312 315 317 319 323
240 241 241 241 242 243 243 244 245 245 245 245 245 245 245 247 248 248 249 251 252 253 254 255 254 254 253 250 252 255 253 251 248 245 242 235 227 223 222 224 225 219 213 208 201 198 196 192 192 195 193 193 198 200 198 198 205 214 218 218 222 227 231 237 247 259 268 273 278 281 281 283 284 288 294 298 300 301 301 305 312 315 316 319 324
239 240 240 241 241 241 242 242 243 243 243 243 243 244 244 245 246 248 249 251 252 252 252 252 252 252 254 253 251 250 249 249 250 249 246 240 231 224 221 222 221 214 208 202 196 192 190 190 194 194 189 191 196 195 194 198 204 211 214 215 220 228 231 235 246 257 264 269 274 277 278 280 282 286 290 294 296 296 296 303 312 315 315 319 324
239 238 238 239 239 240 240 240 240 240 241 242 242 242 243 245 245 246 248 250 252 251 249 248 248 247 247 246 244 244 248 249 249 248 244 240 236 232 227 224 220 213 206 200 198 195 192 192 194 191 188 193 197 196 198 203 207 210 211 212 215 222 226 233 246 255 260 265 270 273 274 276 280 284 287 291 292 291 293 304 312 314 316 318 321
238 236 235 234 235 237 237 236 236 237 237 238 239 240 241 244 245 245 246 248 249 248 247 245 245 245 241 236 236 241 248 248 247 247 244 240 237 233 229 228 228 225 217 208 201 197 195 198 199 195 193 197 200 200 202 205 206 208 211 211 211 216 220 225 238 251 256 259 263 270 276 280 284 288 292 294 292 290 295 307 313 313 313 315 318
232 231 230 231 232 232 232 232 234 234 236 236 237 239 241 243 244 245 245 245 244 244 243 243 244 244 238 233 236 243 248 247 246 245 241 237 234 231 229 230 232 233 232 227 218 209 205 204 202 200 201 201 200 201 203 204 204 206 209 211 213 216 221 224 227 238 251 255 258 271 282 288 292 296 299 298 293 292 299 309 314 313 309 311 317
225 224 225 226 226 226 227 228 228 227 230 232 231 235 238 237 238 239 241 241 242 242 241 240 240 239 237 237 240 243 243 242 243 242 237 232 229 228 229 230 231 232 233 233 232 229 224 217 210 207 207 205 204 205 205 204 203 203 204 209 214 218 224 228 230 235 246 252 259 276 287 291 295 297 298 298 294 295 302 311 315 311 304 305 312
223 223 223 224 223 223 223 225 223 222 226 229 230 232 232 231 231 232 234 236 240 242 240 237 237 237 240 242 242 240 238 237 238 236 232 228 225 222 223 225 228 228 227 226 226 229 230 224 218 215 213 211 212 214 209 204 205 208 208 211 218 222 223 226 230 235 242 251 262 274 283 289 292 293 295 299 301 301 306 312 313 307 299 297 306
227 227 227 226 225 223 222 223 222 222 225 228 231 235 235 232 230 230 230 231 234 237 236 235 237 239 242 243 241 239 237 237 238 235 231 228 224 220 220 222 223 224 224 224 224 224 224 223 219 219 217 216 218 219 211 206 209 214 214 218 228 226 219 217 222 230 238 250 259 259 267 281 286 288 295 301 304 305 308 311 309 304 295 291 301
229 228 226 225 223 221 219 220 221 224 227 226 228 231 232 230 227 225 225 226 228 230 231 233 236 239 240 239 238 238 239 238 239 236 231 227 223 219 217 218 221 223 222 221 222 222 221 220 219 222 224 225 226 224 217 211 212 214 212 215 221 215 206 202 213 226 237 248 254 251 256 275 282 286 293 301 303 304 308 309 309 306 293 288 300
223 221 220 219 220 220 220 221 224 225 225 223 222 223 222 221 221 220 219 219 223 227 230 234 236 235 235 236 236 238 239 240 241 236 229 224 220 218 216 216 218 220 218 218 219 220 219 219 222 226 230 234 232 228 223 218 215 214 213 212 211 204 196 195 209 225 234 242 249 248 251 268 280 285 293 300 302 303 306 309 315 317 299 294 307
221 220 220 220 220 221 221 221 221 220 219 218 217 217 217 216 217 217 216 215 217 223 229 232 233 231 231 232 234 236 237 238 238 235 229 224 220 217 215 214 214 214 213 213 213 214 215 216 220 225 227 231 231 225 221 217 212 215 223 224 216 206 200 203 211 222 234 242 246 243 240 259 276 287 299 305 302 301 303 306 318 326 314 310 316
224 222 220 220 219 218 218 218 218 218 218 219 219 218 216 214 215 215 214 210 209 214 222 226 227 229 232 233 232 234 235 235 234 232 228 225 221 219 216 214 214 215 214 211 209 210 211 211 214 217 217 218 218 214 212 210 209 217 228 228 220 212 210 212 211 209 226 248 242 232 227 247 272 285 300 309 308 309 310 308 317 320 316 316 320
Height
869 870 871 872 873 873 874 874 875 875 876 877 877 878 878 879 880 880 880 880 880 880 880 879 879 879 878 878 878 878 878 877 878 878 878 878 878 878 877 877 877 877 877 878 878 878 878 878 878 878 878 879 879 878 878 878 878 877 877 877 876 876 875 875 874 874 873 873 872 871 871 870 869 869 868 868 867 866 864 863 862 860 859 858 856
869 869 870 871 871 872 872 873 874 874 875 876 876 877 878 878 878 879 879 879 878 878 878 877 877 877 877 877 877 877 877 877 877 877 878 878 878 878 877 877 876 876 877 877 877 878 878 878 878 878 879 879 879 879 879 878 878 878 878 877 877 876 876 875 875 874 874 873 873 872 871 870 870 869 869 868 867 866 865 863 862 861 859 858 856
867 868 869 870 870 871 871 872 872 873 874 874 875 876 876 877 877 877 877 877 877 877 876 876 876 877 877 877 877 876 877 877 877 878 878 878 878 878 877 877 876 876 876 877 877 878 878 879 879 879 879 880 880 880 879 879 879 878 878 878 877 877 876 876 875 875 874 873 873 872 871 871 870 870 869 868 868 866 865 864 862 861 860 858 856
866 867 867 868 869 869 870 870 871 871 872 873 874 874 875 875 875 875 876 876 876 876 876 876 876 876 876 876 876 876 876 877 877 877 878 878 878 878 878 877 877 877 877 877 877 878 879 879 879 880 880 880 880 880 880 880 879 879 879 878 878 877 877 876 876 875 875 874 873 872 872 871 871 870 870 869 868 867 865 864 862 861 860 858 856
864 865 866 867 867 868 868 868 869 870 870 871 872 872 873 874 874 874 874 875 875 875 875 875 875 875 876 876 876 876 876 876 877 877 877 878 878 878 878 878 878 877 878 878 878 878 879 879 879 880 881 881 881 881 881 880 880 880 879 879 878 878 877 876 876 875 875 874 873 873 872 872 871 871 870 869 868 867 865 864 863 861 860 858 856
861 863 864 864 865 865 865 866 867 868 869 870 870 871 872 872 873 873 873 874 874 874 874 874 874 875 875 875 875 875 876 876 877 877 877 877 878 878 878 878 878 878 878 878 878 878 879 879 879 880 881 881 881 881 881 881 880 880 880 879 878 878 877 877 876 876 875 874 874 873 873 872 871 871 870 869 868 867 865 864 863 861 859 858 856
859 860 861 861 862 862 863 864 865 867 868 868 869 870 870 871 871 872 872 873 873 873 873 873 874 874 874 875 875 875 875 875 876 877 877 877 878 878 878 879 879 879 879 879 878 878 878 879 879 880 881 881 881 881 881 881 881 880 880 879 878 878 877 877 876 876 875 874 874 873 873 872 872 871 870 869 868 867 865 864 863 861 859 857 856
856 857 858 859 859 860 861 863 864 865 866 867 868 868 869 869 870 870 871 871 872 872 872 873 873 874 874 874 874 874 874 875 876 876 877 878 878 878 879 879 879 879 879 879 879 879 879 879 879 880 880 881 881 881 881 881 881 880 880 879 878 877 877 876 876 876 875 874 874 873 873 873 872 871 870 869 868 866 865 864 862 861 859 857 855
854 855 855 856 857 859 860 862 863 863 865 865 866 866 867 867 868 869 869 870 870 871 872 872 872 873 873 874 874 874 874 875 876 876 877 877 878 878 878 878 878 879 878 878 878 878 879 879 879 880 880 880 881 881 881 881 881 880 879 879 878 877 876 876 876 875 875 874 874 874 873 873 872 871 870 869 867 866 865 864 862 861 859 857 855
851 852 853 855 856 857 858 860 861 861 862 863 864 865 865 866 866 867 868 869 869 870 871 871 872 872 873 873 873 873 874 875 875 875 876 876 876 877 877 877 878 878 878 878 878 878 878 879 879 879 879 880 880 880 880 880 880 880 879 878 877 877 876 876 875 875 875 874 874 874 873 873 872 871 870 868 867 866 865 864 862 860 858 857 855
849 850 852 853 854 855 856 857 858 859 860 861 862 862 863 864 865 866 867 868 868 869 870 870 871 871 871 872 872 872 873 873 874 874 874 875 875 875 875 876 876 877 877 877 877 877 878 878 878 879 879 879 879 879 879 879 879 879 878 878 877 876 876 875 875 874 874 874 874 873 873 872 871 870 869 868 867 866 865 863 862 860 858 856 855
846 848 849 850 851 852 853 855 856 856 857 858 859 861 862 863 864 865 866 866 867 868 869 869 870 870 870 871 871 871 871 872 872 872 873 873 873 874 874 875 875 875 876 876 876 877 877 877 878 878 878 878 878 878 878 878 878 878 878 877 877 876 876 875 874 874 874 874 874 873 872 872 871 870 869 868 867 866 864 863 861 860 858 856 854
844 845 846 847 848 850 851 852 854 855 855 856 858 859 861 862 863 864 864 865 866 867 868 868 868 869 869 869 869 869 870 870 870 870 871 871 872 872 872 873 874 874 875 875 875 876 876 876 877 877 877 877 877 877 877 877 877 877 877 877 877 876 875 875 874 874 873 873 873 873 872 871 871 869 868 867 866 865 864 863 861 859 858 856 854
841 842 844 845 846 848 849 850 852 853 854 855 856 858 859 860 861 862 863 863 864 865 866 866 867 867 868 868 868 868 868 868 868 868 869 870 870 871 871 871 872 873 873 874 874 875 875 876 876 876 876 877 877 876 876 876 876 876 876 876 876 875 875 874 874 873 873 873 873 872 871 871 870 869 868 867 866 865 863 862 860 859 857 855 853
838 840 841 843 844 845 846 848 849 850 851 852 854 855 856 857 858 859 860 861 861 862 863 864 865 866 868 868 868 868 867 867 867 867 867 868 869 869 870 871 871 872 872 873 873 874 875 875 875 876 876 876 876 875 875 875 875 875 875 875 875 874 874 874 873 873 872 872 872 871 871 870 869 868 867 866 865 864 863 861 860 858 856 854 853
836 837 838 840 841 842 843 845 846 847 849 849 850 851 853 854 855 856 858 858 858 859 860 862 862 864 866 867 868 868 867 865 865 865 866 867 867 868 869 869 870 871 871 872 872 873 873 874 874 875 875 875 875 874 874 874 874 874 874 874 874 873 873 873 872 872 872 871 871 871 870 869 868 867 866 865 864 863 862 860 859 857 855 853 852
833 834 835 836 837 839 840 842 843 844 845 846 847 848 849 850 852 853 854 854 855 856 857 859 859 860 862 864 866 867 865 863 863 864 864 864 865 866 867 868 868 869 870 870 871 872 872 873 873 873 873 873 873 873 873 873 873 873 873 873 872 872 872 872 871 871 871 870 870 869 869 868 867 866 865 864 863 862 861 859 858 856 854 853 851
829 830 831 833 834 835 837 838 840 841 842 843 843 844 845 846 848 849 849 850 852 854 854 856 857 858 858 859 860 861 861 862 863 863 862 863 863 864 865 866 867 868 868 869 870 870 871 871 871 871 872 872 872 872 872 872 872 872 872 871 871 871 870 870 870 870 869 869 869 868 868 867 866 865 864 863 862 861 860 858 857 855 853 851 850
824 826 827 828 830 831 833 834 835 836 837 838 839 840 841 842 844 845 846 848 850 851 851 853 855 855 856 856 856 857 857 859 860 861 861 861 861 862 863 864 865 866 866 867 868 868 868 869 869 870 870 871 871 871 871 871 871 870 870 869 869 869 869 869 869 868 868 868 867 867 866 866 865 863 862 861 860 859 858 857 856 854 852 850 848
819 821 822 824 825 826 828 829 830 832 833 833 834 835 837 838 840 841 843 844 846 847 848 850 851 851 852 853 854 854 855 855 856 857 858 858 859 860 861 862 863 864 864 865 865 866 866 866 867 868 869 869 870 870 869 869 868 868 868 868 868 867 867 867 867 867 867 867 866 866 865 864 863 862 861 860 859 858 857 856 855 853 851 849 847
815 816 818 819 820 822 823 825 826 827 828 829 830 832 833 835 836 837 839 840 842 843 845 846 846 847 848 850 850 851 852 853 853 854 854 855 857 858 859 860 861 861 861 862 862 863 864 865 866 867 867 868 868 868 867 867 866 866 866 866 866 866 866 865 865 865 865 865 865 865 864 863 862 861 860 859 858 857 856 854 853 852 850 848 846
810 812 814 815 816 818 820 821 822 823 824 825 827 828 830 831 833 834 835 837 838 839 841 841 842 843 844 845 847 848 850 850 851 851 852 852 853 854 855 856 856 856 857 858 859 860 862 863 864 864 865 865 865 866 866 865 865 865 865 865 865 864 864 864 864 864 864 864 863 863 863 862 861 860 859 858 856 855 854 853 851 850 849 847 845
807 808 810 811 813 814 816 817 818 820 821 822 823 824 826 828 829 831 832 833 834 835 836 837 839 840 840 841 842 844 845 845 846 847 848 849 849 850 850 850 851 852 853 855 856 858 859 860 860 861 862 862 863 864 864 863 863 863 863 863 863 863 862 862 862 862 862 862 862 861 861 860 859 858 857 856 855 853 852 851 850 849 847 845 844
803 804 804 806 809 810 812 813 814 815 816 818 819 821 823 824 826 827 828 828 829 831 832 833 835 835 836 837 838 839 840 840 840 841 842 843 843 844 845 847 849 850 851 852 854 855 855 856 856 857 859 859 860 860 861 861 861 861 861 861 861 861 861 860 860 860 860 860 859 859 859 858 857 857 856 854 853 851 850 849 848 847 846 845 843
798 798 799 801 804 805 807 808 809 810 812 814 815 817 819 820 822 823 823 824 825 827 828 828 830 830 831 833 834 835 835 835 836 836 836 837 838 840 843 845 846 847 849 849 850 851 852 853 853 854 855 855 856 857 858 858 859 859 859 859 859 859 859 858 858 858 858 858 858 857 857 856 855 854 854 853 851 850 849 848 847 846 845 844 842
791 792 794 796 799 800 802 804 805 807 809 810 812 813 815 816 817 818 819 819 821 823 823 824 825 826 828 829 830 830 830 830 831 831 831 832 833 836 840 843 844 844 845 845 846 847 847 847 848 850 851 852 853 854 855 856 856 856 856 856 856 856 856 856 856 856 856 856 856 856 855 854 853 852 852 851 850 849 847 846 846 845 844 843 841
786 787 790 793 794 796 798 800 801 803 805 806 807 809 811 812 813 814 815 816 818 819 820 821 822 823 824 825 824 824 824 824 825 826 826 827 828 829 834 839 842 843 843 843 844 842 841 843 845 846 846 847 848 850 851 852 853 853 854 854 854 854 854 854 854 854 854 854 854 853 853 853 851 850 850 850 849 847 846 845 844 843 842 841 839
782 784 787 789 791 793 794 796 797 799 800 801 803 805 807 808 809 810 810 812 814 815 816 817 817 818 818 819 819 818 818 819 820 821 822 822 822 823 825 830 834 839 843 844 842 839 838 840 841 842 843 844 845 846 848 849 850 851 852 852 852 852 852 852 852 852 852 852 852 852 851 851 851 850 849 849 847 846 844 843 842 842 841 839 837
779 781 784 786 787 789 790 792 793 795 796 798 799 801 802 804 804 805 806 808 810 811 812 812 812 813 813 813 814 813 814 816 817 817 818 818 819 819 819 821 825 829 835 838 837 835 834 835 836 837 839 841 843 845 846 847 848 849 850 850 850 851 851 851 851 850 850 850 850 850 850 850 850 849 849 848 846 845 843 841 840 839 838 837 835
776 779 781 782 784 785 787 788 790 791 793 794 796 797 799 800 800 801 803 805 806 806 807 807 807 808 808 809 809 810 811 812 813 814 815 815 815 815 814 816 819 822 825 828 829 829 829 830 831 833 835 838 841 842 843 845 846 847 848 848 848 848 849 849 848 848 848 848 848 848 848 848 848 847 847 846 844 842 840 839 838 837 836 834 832
773 775 777 778 780 782 783 785 787 788 789 791 792 793 795 796 797 798 799 801 801 801 801 802 803 804 804 805 806 806 808 809 810 811 811 811 812 811 811 813 816 818 819 821 823 823 826 827 828 830 832 835 838 840 841 843 844 844 845 845 845 846 846 846 846 846 846 846 846 846 845 845 845 845 844 843 842 840 838 836 835 834 833 831 830
769 771 773 774 776 778 780 782 783 784 785 787 788 790 791 792 793 794 795 796 796 796 797 798 799 800 800 801 801 802 804 805 805 806 806 807 807 808 809 811 813 814 816 818 819 820 823 825 826 828 831 833 835 837 838 839 840 841 841 842 842 842 843 843 843 843 843 843 843 843 842 842 842 842 841 840 839 837 835 834 833 832 830 829 827
765 767 769 770 772 774 776 778 779 780 782 783 784 786 787 788 788 790 791 792 792 792 793 794 794 795 796 796 797 798 799 799 799 800 801 802 804 805 806 807 808 810 812 815 816 819 822 824 825 827 828 830 832 833 834 835 836 837 837 838 839 839 840 840 840 841 841 841 840 840 839 839 839 839 838 838 837 835 833 832 831 829 828 826 825
761 763 765 767 769 771 772 773 775 776 777 779 780 782 783 784 784 785 786 787 787 787 788 789 789 791 791 792 792 793 794 794 795 796 798 800 802 803 804 804 805 806 808 810 812 816 820 822 823 824 825 827 828 828 829 830 831 833 834 835 836 837 837 837 837 837 837 838 837 837 837 837 837 837 836 836 834 833 831 830 829 827 826 824 823
758 759 761 763 765 767 768 769 770 772 773 775 777 778 779 780 780 781 782 782 782 783 784 784 785 786 787 787 788 789 791 792 793 795 796 797 798 799 801 803 804 804 805 807 809 812 816 818 819 820 821 823 823 824 825 827 829 830 831 832 833 834 834 834 834 835 835 835 835 835 835 835 835 835 835 834 832 831 830 829 828 826 824 823 822
754 755 757 759 761 763 764 765 766 768 769 771 772 773 774 775 776 777 778 778 778 779 780 781 782 783 784 784 785 787 788 789 790 792 793 794 795 797 799 800 801 801 803 805 808 810 812 813 815 816 817 818 820 821 823 825 828 828 829 830 830 831 831 832 832 833 833 834 833 833 833 833 834 833 833 832 830 829 828 827 826 824 823 822 821
750 752 754 755 757 758 759 761 762 764 765 766 768 769 770 771 772 772 773 774 774 775 777 778 779 780 780 781 783 784 785 786 788 789 790 791 793 795 796 796 797 799 800 803 805 807 808 809 810 813 815 816 818 819 821 822 824 825 826 827 827 828 829 830 831 831 832 832 832 831 831 831 831 831 830 829 828 827 826 826 825 823 822 820 820
746 748 750 751 753 754 755 757 758 760 761 762 763 764 766 767 768 768 769 770 771 772 774 775 775 776 777 778 779 780 781 782 784 785 786 787 789 791 791 792 793 794 796 798 801 804 805 805 806 809 811 813 814 816 819 820 821 822 823 824 825 826 827 828 829 830 830 830 829 829 829 828 828 828 827 826 825 825 824 824 823 822 820 819 818
743 744 745 747 748 750 752 753 754 756 757 758 759 760 762 763 764 765 766 767 768 769 770 771 772 773 773 774 775 776 777 778 779 780 781 783 784 785 786 787 789 790 791 793 796 799 801 802 804 806 808 810 812 814 816 818 820 821 821 822 823 823 825 826 827 827 827 827 827 826 826 825 825 825 825 824 824 823 822 822 821 820 819 817 817
739 740 741 743 745 746 748 749 750 752 753 754 755 756 758 759 760 761 762 763 764 765 766 767 768 769 769 770 771 772 773 774 775 776 777 778 779 780 782 784 785 786 788 790 793 795 797 800 802 803 806 809 811 813 815 817 818 818 819 820 820 821 823 824 824 824 824 824 824 823 823 823 823 823 823 823 822 821 821 820 819 818 817 816 815
735 736 738 739 741 742 743 745 746 748 749 750 751 753 754 755 756 757 758 760 761 762 763 763 764 765 765 766 767 768 769 770 771 772 773 774 775 776 778 780 782 784 786 789 790 792 795 797 800 801 804 806 808 810 811 812 812 813 815 817 818 819 820 821 821 821 821 821 821 821 821 822 821 821 822 821 820 819 819 819 818 816 815 814 814
731 733 734 736 737 738 739 741 742 744 745 746 748 749 750 751 753 754 755 756 757 758 759 759 760 761 761 762 763 764 765 766 767 769 770 771 772 772 775 777 779 781 784 786 787 788 790 793 795 798 800 801 803 804 805 806 808 811 813 814 815 816 817 818 818 818 819 819 819 820 820 821 821 820 820 820 819 817 817 817 815 814 813 812 812
728 729 731 732 733 735 736 737 739 740 741 743 744 746 747 748 749 750 751 752 753 754 755 756 756 757 758 759 760 761 762 763 764 765 766 767 769 770 773 775 776 778 780 782 784 786 787 789 791 793 795 796 798 800 802 804 807 809 810 811 812 813 814 815 816 816 816 817 818 819 819 820 819 819 818 818 817 816 815 815 814 812 811 810 810
725 726 728 729 730 732 733 734 735 737 738 739 741 742 743 744 745 746 747 749 750 751 752 752 753 754 755 756 757 758 759 760 761 762 763 764 767 769 771 772 774 775 777 779 781 783 785 787 789 790 790 792 795 797 799 801 804 806 808 809 810 810 811 812 813 814 815 816 817 818 818 818 818 817 817 816 816 815 814 813 812 811 810 809 809
723 724 724 726 727 729 730 731 732 733 735 736 737 738 739 740 742 743 744 746 747 748 749 750 751 752 753 754 755 755 756 757 758 759 760 762 765 767 769 771 773 775 777 779 780 781 783 784 785 785 786 789 791 793 795 799 801 804 805 806 807 808 809 810 811 813 814 814 816 817 816 816 816 816 816 815 815 814 813 812 811 811 810 809 808
720 720 721 723 724 725 726 727 729 730 731 733 734 735 736 737 738 739 741 743 744 745 746 747 748 750 751 751 751 752 753 754 755 756 758 760 762 765 767 769 771 773 775 777 779 780 781 782 783 784 786 789 791 792 795 797 800 801 802 804 805 806 808 809 810 811 812 813 814 815 815 814 814 814 814 814 814 813 812 812 810 810 809 807 807
716 717 718 720 721 722 723 724 725 726 728 730 731 732 733 733 735 736 737 739 740 741 743 744 746 747 748 748 748 749 750 751 752 754 757 759 761 763 765 767 769 772 774 776 777 779 780 782 784 786 789 791 792 794 796 797 798 800 801 803 804 805 806 808 809 810 811 811 812 813 813 812 812 813 812 813 813 812 811 810 809 808 808 806 805
713 715 715 716 717 718 720 721 722 723 725 726 728 728 729 730 731 732 734 735 736 738 739 741 742 743 744 745 746 747 748 749 751 753 755 758 760 761 763 765 768 770 772 774 776 777 779 781 784 786 788 790 792 794 795 796 797 799 800 802 803 804 805 806 807 808 809 809 810 811 811 810 810 811 810 811 811 810 809 808 807 806 806 805 804
710 711 712 713 714 715 716 717 718 720 721 723 724 725 726 727 728 729 730 732 733 735 737 739 740 741 743 744 745 746 747 748 750 752 754 756 758 760 762 764 766 768 769 771 773 775 776 778 781 783 785 787 789 791 793 794 795 796 798 799 800 801 803 804 805 806 806 807 807 808 809 809 809 809 809 809 809 808 807 806 805 806 805 805 804
708 709 710 711 712 713 713 714 715 716 718 719 721 722 723 724 724 725 727 728 730 733 736 738 740 741 741 742 743 744 745 747 748 750 751 753 755 757 758 760 762 763 764 766 768 771 773 774 776 779 780 782 784 787 789 791 792 794 795 796 797 798 800 801 802 803 804 804 804 806 807 807 807 807 807 807 807 806 805 805 805 805 805 804 804
706 708 709 709 710 710 711 711 712 713 715 716 718 719 720 721 722 723 724 725 727 730 734 737 739 740 740 740 740 741 742 744 746 747 749 750 752 753 755 757 758 759 760 763 765 768 770 772 773 775 777 779 782 784 786 788 790 792 792 793 794 795 797 798 799 801 802 801 801 803 805 805 805 806 806 807 806 805 804 804 805 804 804 803 803